Location: Roland
(31.1349°N, 85.4372°W)
Time: 03:38:01
(UTC+00:00)

Courier 1B - Pass Details

Date: 23 April 2021
Orbit: 962 x 1209 km, 28.3° (Epoch: 07 May)

Event Time Altitude Azimuth Distance (km) Brightness Sun altitude
Rises 16:08:52 0° 237° (WSW) 3,879 10.5 62.1°
Reaches altitude 10° 16:11:49 10° 230° (SW) 2,884 10.0 62.6°
Maximum altitude 16:18:21 42° 162° (SSE) 1,407 9.7 63.7°
Drops below altitude 10° 16:24:33 10° 93° (E) 2,739 10.3 64.7°
Sets 16:27:17 0° 86° (E) 3,666 10.7 65.1°
